Location: *
(42.4729°S, 106.4568°E)
Time: 06:48:16
(UTC+00:00)

Daily predictions for brighter satellites

Satellite Brightness Start Highest point End
(mag) Time Altitude Azimuth Time Altitude Azimuth Time Altitude Azimuth
Helios 1B rocket 3.4 12:00:33 10° S 12:04:22 46° WSW 12:08:09 10° NW
CZ-4C R/B 3.7 12:05:24 43° SSE 12:05:24 43° SSE 12:08:18 10° S
Cosmos 1408 2.4 12:05:09 10° NNW 12:07:57 64° WNW 12:07:57 64° WNW
Meteor 2-5 Rocket 3.7 12:05:10 10° N 12:11:06 84° E 12:17:01 10° SSE
BREEZE-M DEB (TANK) 2.6 12:12:33 10° WNW 12:14:12 44° NW 12:14:12 44° NW
Meteor 1-24 Rocket 3.7 12:09:48 10° N 12:15:38 90° E 12:21:20 10° S
CZ-4B R/B 3.5 12:11:01 10° SSE 12:16:17 58° E 12:21:24 10° N
Cosmos 1190 Rocket 3.9 12:11:41 10° NNW 12:17:01 89° ENE 12:22:22 10° SSE
Cosmos 1703 3.5 12:19:15 10° NNW 12:22:59 63° W 12:25:42 18° S
Lacrosse 5 rocket 1.7 12:24:28 10° NW 12:27:37 57° W 12:27:37 57° W
Lacrosse 4 Rocket 3.2 12:24:38 10° SSW 12:26:38 22° S 12:26:38 22° S
ATLAS CENTAUR R/B 4.0 12:25:59 10° SSW 12:31:03 34° SSE 12:31:50 33° SE
Cosmos 2327 Rocket 4.3 12:25:50 10° N 12:31:55 76° E 12:38:08 10° S
Cosmos 1954 Rocket 3.9 12:27:27 10° NNW 12:32:43 90° ENE 12:34:28 44° SSE
ADEOS Rocket 3.0 12:27:02 10° SSE 12:34:02 76° ENE 12:40:13 10° N
Cosmos 2322 Rocket 4.5 12:33:48 10° SSE 12:34:14 11° SSE 12:34:14 11° SSE
Cosmos 2154 Rocket 4.4 12:31:32 10° NNW 12:37:44 63° W 12:44:04 10° S
USA 215 3.1 12:43:24 63° ENE 12:44:33 82° SE 12:51:11 10° SW
Cosmos 1833 Rocket 4.1 12:42:28 10° WNW 12:47:38 36° WSW 12:52:52 10° S
Cosmos 2151 Rocket 4.4 12:44:35 10° SSW 12:47:59 46° SW 12:47:59 46° SW
Cosmos 1763 Rocket 4.3 12:50:40 10° SSW 12:55:37 48° WNW 12:56:29 43° NW
SL-16 R/B 4.2 12:51:15 10° S 12:53:01 17° SSE 12:53:01 17° SSE
SeaSat 1 4.0 12:54:55 10° S 12:59:18 33° SW 13:03:40 10° WNW
ISS -0.5 13:00:14 10° WSW 13:01:00 14° WSW 13:01:00 14° WSW
Cosmos 2082 Rocket 3.5 13:04:42 10° NNW 13:07:29 30° NW 13:07:29 30° NW
Cosmos 1980 Rocket 2.9 13:09:48 10° SSW 13:14:05 50° SW 13:14:05 50° SW
Cosmos 909 Rocket 4.5 13:12:59 10° SSW 13:19:05 62° SSW 13:19:05 62° SSW
Lacrosse 5 4.0 13:27:44 10° WSW 13:30:46 22° WNW 13:30:46 22° WNW
CENTAUR R/B 4.2 19:33:14 32° SE 19:33:14 32° SE 19:36:28 10° SE
SL-16 R/B 4.4 19:28:35 10° SE 19:32:36 24° ESE 19:32:36 24° ESE
NOSS 3-2 (C) 4.2 20:15:27 70° NE 20:15:52 71° ENE 20:23:50 10° SE
ARGOS 4.5 20:21:11 10° NE 20:26:05 37° ESE 20:31:03 10° S
CZ-4C R/B 4.1 20:47:55 26° SSW 20:47:55 26° SSW 20:52:40 10° SSE
NOSS 3-2 (A) 4.4 20:51:41 49° SW 20:51:50 49° SW 20:59:19 10° SSE
IRS-1C 4.4 20:49:58 10° NNE 20:57:15 41° S 21:00:44 10° SSW
SeaSat 1 4.1 20:51:24 10° ENE 20:55:45 32° SE 21:00:09 10° S
NOSS 3-3 (A) 4.0 20:58:43 56° NNE 20:58:43 56° NNE 21:02:55 10° NNE
ARIANE 5 R/B 2.7 20:54:13 10° NNE 21:02:11 27° S 21:04:29 10° S
SL-19 R/B 4.4 21:00:35 10° NNE 21:05:52 71° ESE 21:11:29 10° S
NOSS 3-3 (C) 3.8 21:07:16 62° NNW 21:07:16 62° NNW 21:11:52 10° NNE
Cosmos 1943 Rocket 4.3 21:02:56 10° NNE 21:07:21 24° ENE 21:11:46 10° SE
SL-4 R/B 3.1 21:09:11 40° ENE 21:09:11 40° ENE 21:12:31 10° ESE
SL-08 RB Rocket 4.2 21:04:52 10° NNE 21:09:20 59° ESE 21:13:48 10° S
Cosmos 1140 Rocket 3.7 21:06:26 22° S 21:09:51 68° ESE 21:14:59 10° NNE
Cosmos 1633 Rocket 3.3 21:11:57 66° SE 21:11:57 66° SE 21:15:55 10° S
USA 238 DEB 3.9 21:10:31 39° NW 21:13:53 90° WSW 21:21:23 10° SE
USA 238 3.9 21:10:33 38° NNW 21:13:59 89° NE 21:21:29 10° SE
Cosmos 1553 Rocket 3.8 21:13:08 22° N 21:17:16 84° W 21:23:29 10° S
SL-16 R/B 2.6 21:11:28 10° S 21:17:30 54° WSW 21:17:41 53° WSW
IRS-P3 4.0 21:13:42 10° NNE 21:19:05 82° WNW 21:24:32 10° SSW
Cosmos 192 4.3 21:17:57 52° N 21:19:10 81° ENE 21:24:12 10° SSE
Meteor 1-21 4.1 21:14:16 10° S 21:20:08 86° W 21:25:52 10° N
CENTAUR R/B 3.9 21:20:24 27° SW 21:20:46 27° SW 21:26:18 10° SSE
BREEZE-M DEB (TANK) 3.7 21:22:19 51° ESE 21:22:19 51° ESE 21:24:16 10° ESE
Cosmos 1023 Rocket 4.3 21:20:34 28° SSW 21:23:23 86° WNW 21:28:33 10° NNE
Nadezhda 2 Rocket 4.4 21:21:06 10° SSW 21:27:22 65° W 21:33:29 10° N
Okean 1-7 3.6 21:27:58 10° S 21:32:17 58° E 21:36:30 10° NNE
Cosmos 407 Rocket 3.6 21:27:35 10° SSW 21:32:50 75° ESE 21:38:04 10° NNE
DELTA 2 R/B (1) 3.7 21:35:27 46° WNW 21:36:52 62° N 21:42:22 10° ENE
Cosmos 1833 Rocket 2.6 21:35:39 16° SSW 21:40:09 66° WNW 21:45:45 10° NNE
Cosmos 1356 Rocket 3.4 21:36:36 10° S 21:40:51 84° ESE 21:44:59 10° N
Cosmos 1607 4.0 21:38:13 10° SSW 21:44:23 76° ESE 21:50:35 10° NE
Cosmos 2084 Rocket 3.5 21:44:03 31° NNW 21:46:02 76° ENE 21:50:28 10° SE
Cosmos 1862 Rocket 4.0 21:42:29 10° SSW 21:47:32 41° WNW 21:51:06 10° NNW
DMSP B5D2-2 4.2 21:43:11 10° SSE 21:48:33 80° ENE 21:53:48 10° N
Cosmos 1340 4.2 21:55:06 20° SSW 21:55:06 20° SSW 21:56:31 10° S
Okean 3 3.6 21:49:39 10° SSW 21:53:49 50° W 21:57:56 10° NNW
BREEZE M DEB (TANK) 2.7 21:53:39 39° SW 21:54:23 46° SSW 22:00:30 10° ESE
Cosmos 1818 3.5 21:52:37 21° SW 21:56:11 61° WNW 22:01:28 10° NNE
OAO 3 Rocket 4.4 21:56:01 21° NW 21:58:16 31° N 22:02:26 10° ENE
Cosmos 1470 Rocket 3.8 21:57:06 10° NNW 22:01:25 49° WSW 22:05:49 10° S
Cosmos 2082 Rocket 2.8 21:58:13 10° SSW 22:03:49 58° ESE 22:09:23 10° NE
Cosmos 1745 Rocket 4.0 21:58:25 10° SSW 22:04:44 65° W 22:10:54 10° N
SJ-12 4.3 22:01:27 10° NNW 22:05:10 37° W 22:08:57 10° SSW
Cosmos 1900 4.4 22:03:09 24° WNW 22:05:54 53° SW 22:10:42 10° SSE
ARGOS 3.8 22:01:39 10° NNW 22:06:21 30° W 22:11:06 10° SW
Cosmos 2278 Rocket 2.2 22:02:37 10° NW 22:08:14 62° WSW 22:13:55 10° SSE
Cosmos 1867 3.5 22:14:54 10° NW 22:20:19 79° SW 22:25:45 10° SSE
BREEZE-M DEB (TANK) 3.8 22:19:23 21° WSW 22:21:51 66° NNW 22:32:11 10° NE
CORIOLIS 4.2 22:16:48 10° NNE 22:22:15 87° ESE 22:27:46 10° SSW
Cosmos 1470 2.6 22:20:00 10° NNW 22:23:46 65° W 22:27:34 10° S
Cosmos 883 Rocket 4.5 22:18:26 10° NNW 22:24:36 65° W 22:30:56 10° S
AQUARIUS 4.4 22:22:22 10° NNE 22:26:50 74° ESE 22:31:23 10° S
Okean 2 3.9 22:23:34 10° SSW 22:27:24 37° W 22:31:11 10° NNW
Cosmos 676 Rocket 4.2 22:22:24 10° SSW 22:27:40 75° ESE 22:32:51 10° NNE
Cosmos 1933 Rocket 3.8 22:24:11 10° NNW 22:28:23 48° WSW 22:32:42 10° S
Cosmos 2251 Rocket 4.1 22:24:47 10° SW 22:29:43 37° WNW 22:34:35 10° NNW
S3M 4.4 22:26:25 10° NW 22:32:26 42° WSW 22:38:34 10° S
SeaSat 1 3.0 22:28:32 10° N 22:33:06 37° WNW 22:37:42 10° SW
Cosmos 1420 Rocket 4.2 22:30:22 10° NW 22:35:32 50° WSW 22:40:46 10° S
SL-24 DEB 4.3 22:31:05 10° NNW 22:35:35 52° W 22:40:08 10° SSW
GEOS 3 Rocket 3.6 22:32:47 10° SSE 22:38:02 69° SW 22:43:19 10° NW
ARIANE 5 R/B 4.1 22:36:45 10° WNW 22:42:34 - SW 22:38:49 13° W
ASTEX 1 3.4 22:38:03 10° S 22:43:00 70° W 22:47:54 10° NNW
Cosmos 2056 Rocket 3.7 22:38:21 10° NW 22:43:33 50° WSW 22:48:44 10° S
Cosmos 1190 Rocket 4.3 22:39:06 10° SSW 22:44:08 47° WNW 22:49:04 10° N
SL-4 R/B 2.6 22:44:04 12° W 22:47:32 40° SSW 22:51:35 10° SE
Helios 1B rocket 2.3 22:44:41 10° N 22:48:37 71° WNW 22:52:37 10° SSW
Cosmos 1758 4.2 22:45:27 10° N 22:49:12 52° E 22:53:01 10° SSE
Cosmos 1452 Rocket 4.4 22:45:02 10° N 22:50:09 56° ENE 22:55:21 10° SSE
Cosmos 1943 Rocket 2.4 22:45:16 10° NW 22:50:43 49° WSW 22:56:11 10° SSE
Meteor 2-5 Rocket 4.1 22:46:49 10° S 22:52:30 69° ESE 22:58:02 10° NNE
USA 290 2.0 22:49:58 10° NNW 22:53:04 73° WSW 22:56:15 10° SSE
Cosmos 1242 Rocket 3.3 22:51:26 10° S 22:54:21 45° ESE 22:57:13 10° NNE
Cosmos 1908 3.5 22:51:15 10° NNW 22:54:42 41° WSW 22:58:12 10° S
Cosmos 1624 Rocket 4.4 22:49:50 10° NW 22:54:44 41° WSW 22:59:44 10° S
Meteor 1-24 Rocket 4.0 22:49:31 10° S 22:54:55 70° E 23:00:14 10° NNE
USA 267 4.3 22:51:31 10° ESE 22:57:56 51° NE 23:04:17 10° NNW
Cosmos 1954 Rocket 4.3 22:54:32 10° SSW 22:59:32 46° WNW 23:04:28 10° N
Meteor 1-12 Rocket 4.5 22:58:33 10° N 23:04:26 88° E 23:10:31 10° S
